Branson, MO

9:47 PM CDT on June 23, 2017 (GMT -0500)
Branson

Weather History for KBBG - January, 2013

Change the Weather History Date:

Saturday, January 12, 2013

  Actual Average (KHRO) Record (KHRO)
Temperature  
Mean Temperature 44 °F -  
Max Temperature 57 °F 42 °F 78 °F (1928)
Min Temperature 32 °F 22 °F -17 °F (1918)
Degree Days  
Heating Degree Days 20    
Moisture  
Dew Point 39 °F    
Average Humidity 84    
Maximum Humidity 100    
Minimum Humidity 50    
Precipitation  
Precipitation 0.04 in - - ()
Sea Level Pressure  
Sea Level Pressure 29.88 in    
Wind  
Wind Speed 8 mph (NW)    
Max Wind Speed 21 mph    
Max Gust Speed 29 mph    
Visibility 8 miles    
Events Rain , Snow , Thunderstorm    
Averages and records for this station are not official NWS values.
T = Trace of Precipitation, MM = Missing Value Source: NWS Daily Summary

Daily Weather History Graph

Daily Weather History Graph

Search for Another Location

Airport or City:

Trip Planner

Search our weather history database for the weather conditions in past years. The results will help you decide how hot, cold, wet, or windy it might be!

Date:

Astronomy

Jan. 12, 2013 Rise Set
Actual Time 7:24 AM CST 5:18 PM CST
Civil Twilight 6:56 AM CST 5:46 PM CST
Nautical Twilight 6:24 AM CST 6:18 PM CST
Astronomical Twilight 5:53 AM CST 6:49 PM CST
Moon 7:46 AM CST (1/12) 6:44 PM CST (1/12)
Length of Visible Light 10h 50m
Length of Day
9h 53m
New Moon, 1% of the Moon is Illuminated
Jan 12
New Moon
Jan 18
First Quarter
Jan 26
Full
Feb 3
Last Quarter
Feb 10
New

Hourly Weather History & Observations

Time (CST) Temp. Windchill Dew Point Humidity Pressure Visibility Wind Dir Wind Speed Gust Speed Precip Events Conditions
12:15 AM 55.4 °F - 46.4 °F 72% 29.85 in 10.0 mi SSE 6.9 mph - N/A   Clear
12:35 AM 55.4 °F - 46.4 °F 72% 29.85 in 10.0 mi South 6.9 mph - N/A   Clear
12:55 AM 55.4 °F - 46.4 °F 72% 29.85 in 10.0 mi South 6.9 mph - N/A   Clear
1:15 AM 55.4 °F - 46.4 °F 72% 29.86 in 10.0 mi South 5.8 mph - N/A   Clear
1:35 AM 55.4 °F - 46.4 °F 72% 29.86 in 10.0 mi South 5.8 mph - N/A   Clear
1:55 AM 55.4 °F - 46.4 °F 72% 29.86 in 10.0 mi South 6.9 mph - N/A   Clear
2:15 AM 55.4 °F - 46.4 °F 72% 29.86 in 10.0 mi South 5.8 mph - N/A   Clear
2:55 AM 55.4 °F - 48.2 °F 77% 29.87 in 10.0 mi South 4.6 mph - N/A   Clear
3:15 AM 55.4 °F - 48.2 °F 77% 29.86 in 10.0 mi South 3.5 mph - N/A   Clear
3:35 AM 55.4 °F - 48.2 °F 77% 29.87 in 10.0 mi South 4.6 mph - N/A   Clear
3:55 AM 55.4 °F - 48.2 °F 77% 29.86 in 10.0 mi South 5.8 mph - N/A   Clear
4:15 AM 57.2 °F - 48.2 °F 72% 29.86 in 10.0 mi SSW 3.5 mph - N/A   Partly Cloudy
4:35 AM 53.6 °F - 48.2 °F 82% 29.87 in 10.0 mi Calm Calm - N/A   Mostly Cloudy
4:55 AM 55.4 °F - 48.2 °F 77% 29.88 in 10.0 mi Calm Calm - N/A   Overcast
5:15 AM 53.6 °F - 48.2 °F 82% 29.88 in 10.0 mi West 3.5 mph - N/A   Overcast
5:35 AM 55.4 °F - 48.2 °F 77% 29.87 in 10.0 mi NNW 4.6 mph - N/A   Overcast
6:55 AM 51.8 °F - 48.2 °F 88% 29.88 in 10.0 mi Calm Calm - N/A   Overcast
7:55 AM 53.6 °F - 48.2 °F 82% 29.90 in 10.0 mi Calm Calm - N/A   Overcast
8:52 AM 53.6 °F - 48.2 °F 82% 29.92 in 10.0 mi NNW 10.4 mph - N/A   Overcast
9:47 AM 50.0 °F - 37.4 °F 62% 29.92 in 10.0 mi NNW 12.7 mph - N/A   Overcast
10:45 AM 50.0 °F - 32.0 °F 50% 29.91 in 10.0 mi North 10.4 mph - N/A   Overcast
11:55 AM 48.2 °F - 37.4 °F 66% 29.89 in 7.0 mi NNW 6.9 mph - N/A   Overcast
12:50 PM 42.8 °F 37.5 °F 39.2 °F 87% 29.88 in 1.5 mi NNW 9.2 mph - N/A Rain Light Rain
1:51 PM 41.0 °F 33.9 °F 37.4 °F 87% 29.85 in 3.0 mi North 12.7 mph 19.6 mph N/A Rain Light Rain
2:48 PM 39.2 °F 31.2 °F 37.4 °F 93% 29.83 in 4.0 mi North 13.8 mph 20.7 mph N/A   Overcast
3:45 PM 39.2 °F 33.0 °F 37.4 °F 93% 29.82 in 1.8 mi NNW 9.2 mph - N/A Rain Light Rain
4:45 PM 37.4 °F 29.3 °F 37.4 °F 100% 29.83 in 4.0 mi NW 12.7 mph 20.7 mph N/A Rain Light Rain
5:46 PM 35.6 °F 26.6 °F 35.6 °F 100% 29.84 in 2.0 mi NNW 13.8 mph 25.3 mph N/A Rain Rain
6:28 PM 32.0 °F 22.1 °F 32.0 °F 100% 29.80 in 2.5 mi NE 13.8 mph - N/A Rain , Thunderstorm Thunderstorms and Rain
7:50 PM 32.0 °F 19.8 °F 32.0 °F 100% 29.89 in 7.0 mi NW 20.7 mph 28.8 mph N/A Snow Light Snow
8:12 PM 32.0 °F 20.8 °F 30.2 °F 93% 29.88 in 5.0 mi NNW 17.3 mph 26.5 mph N/A Rain Light Freezing Rain
8:15 PM 32.0 °F 21.2 °F 30.2 °F 93% 29.89 in 9.0 mi NNW 16.1 mph 24.2 mph N/A Rain Light Rain
8:35 PM 32.0 °F 22.5 °F 30.2 °F 93% 29.91 in 4.0 mi NNW 12.7 mph 19.6 mph 0.02 in Rain Light Rain
8:51 PM 32.0 °F 21.6 °F 30.2 °F 93% 29.90 in 7.0 mi NNW 15.0 mph 20.7 mph N/A Rain Light Freezing Rain
8:55 PM 32.0 °F 24.8 °F 30.2 °F 93% 29.92 in 8.0 mi NNW 8.1 mph - 0.03 in Rain Light Rain
9:15 PM 32.0 °F 22.5 °F 30.2 °F 93% 29.91 in 3.0 mi NNW 12.7 mph - 0.01 in Rain Light Rain
9:35 PM 32.0 °F 24.8 °F 30.2 °F 93% 29.89 in 6.0 mi North 8.1 mph - 0.01 in Rain Light Rain
10:15 PM 32.0 °F 23.6 °F 30.2 °F 93% 29.91 in 10.0 mi NNW 10.4 mph - N/A   Overcast
10:35 PM 32.0 °F 24.2 °F 30.2 °F 93% 29.92 in 10.0 mi NNW 9.2 mph - N/A   Overcast
10:55 PM 32.0 °F 25.6 °F 30.2 °F 93% 29.93 in 10.0 mi NW 6.9 mph - N/A   Overcast
11:15 PM 32.0 °F 23.6 °F 30.2 °F 93% 29.92 in 10.0 mi NW 10.4 mph - N/A   Overcast
11:35 PM 32.0 °F 24.2 °F 30.2 °F 93% 29.92 in 10.0 mi NNW 9.2 mph - N/A   Overcast
11:55 PM 32.0 °F 23.6 °F 30.2 °F 93% 29.91 in 10.0 mi North 10.4 mph - N/A   Overcast